User: anonymous   Login
Location: Hancock Field Station
(44.9202°N, 120.4259°W)
Time: 11:17:21
(UTC-07:00)
Language:

Nadezhda 4 Rocket - Orbit

View from above orbital plane
View from above orbital plane
View from above satellite
View from above satellite

Ground track
Ground track

The orbit data is extracted from the following two-line orbital elements,

1 23180U 94041B   17172.91014800 +.00000042 +00000-0 +26285-4 0  9996
2 23180 082.9467 287.5050 0028309 208.8394 290.9484 13.77947415153299
Epoch (UTC): 21 June 2017 21:50:36
Eccentricity: 0.0028309
inclination: 82.9467°
perigee height: 950 km
apogee height: 992 km
right ascension of ascending node: 287.5050°
argument of perigee: 208.8394°
revolutions per day: 13.77947415
mean anomaly at epoch: 290.9484°
orbit number at epoch: 15329

The dashed part of the orbit path shows where the satellite is in the earth's shadow,  

DLR